{"data":{"norad_id":62786,"epoch":"2026-09-22T21:32:26.572128Z","epoch_age_seconds":110956,"freshness":"FRESH","line1":"1 62786U 25016B   26265.89752977  .00000052  00000+0  61725-4 0  9999","line2":"2 62786  88.9648  73.4676 0014271 247.2864 112.6779 13.51028295 85603","mean_motion":13.51028295,"eccentricity":0.0014271,"inclination_deg":88.9648,"raan_deg":73.4676,"arg_perigee_deg":247.2864,"mean_anomaly_deg":112.6779,"bstar":6.1725e-5,"rev_number":8560,"period_min":106.58548050617,"perigee_km":1057.8505485614,"apogee_km":1079.1046759877,"semimajor_km":7446.6146122745,"source":"CELESTRAK","updated_at":"2026-09-23T09:00:21.633113Z"}}